Showing default

COSMOS 2271, 23002

Orbit data source: Space-Track

COSMOS 2271, 23002 is a payload satellite owned by VKS (CIS) in LEO that was launched on Sat, 12 Feb 1994 UTC via a TSIKLON-3 launch vehicle from the Plesetsk Missile And Space Complex (PKMTR). Payloads include a variety of satellites, spacecraft, and rockets equipped with specific instruments for various scientific and technological missions. These include communications satellites like Starlink; space stations such as the ISS; scientific satellites like the Hubble; Earth observation satellites from companies like Planet Labs, Umbra, and HawkEye 360; GPS; miniature CubeSats for education and research; and military/defense satellites.

Loading next visibility...
COSMOS 2271 details
Identifier
23002, 1994-011D
Orbit
LEO
Last TLE update1 day ago
Origin
Flag of CISVKS (CIS)
ManufacturerNPO PM
MissionDefense Communications
Bus & MotorSTRELA-3, Unknown motor
Mass225 kg wet, 225 kg dry
Launch date (UTC)
1994-02-12 (31 years ago)
Launch vehicle
TSIKLON-3
Launch site
Plesetsk Missile And Space Complex (PKMTR)
Object type
Payload
Rocket body
Debris
Shape & HBRCyl, 1.6 m
Radar Cross Section1.257 m², Medium (>0.1 m² and < 1m²)

Expand to show TLE details & history

TLE from 1 day ago
0 COSMOS 2271
1 23002U 94011D   25035.10294015  .00000023  00000-0  68484-4 0  9998
2 23002  82.5615 256.3151 0006168 240.8461 119.2013 12.63504254428581
Epoch: 2025-02-04T02:28Z
Definitive object data (Epoch: 2025-02-04T02:28:14.028Z)
Latitude-0.00013°
Longitude84.74359°
Altitude1,413.591 km
Speed7.153 km/s
True Right ascension17h 05m 15s
True Declination0° 00' 00"
Sunlit
Object was in daylight at TLE epoch
Visualization TLE readout
Latitude12.01056°
Longitude85.56465°
Altitude1,413.831 km
Speed7.153 km/s
Apparent Right ascension18h 38m 32s
Apparent Declination-12° 37' 16"
Sunlit
Object is in daylight
Visualization observer readout
Local Sidereal Time09:04:42
Azimuth59.999° ENE
Elevation-47.861°
Doppler factor1
Orbital elements
Apogee altitude1,410.635 km
Perigee altitude1,401.032 km
Semi-major axis7,783.971 km
Eccentricity0.0006168
Inclination82.5615°
RAAN256.3151°
Arg. of periapsis240.8461°
True anomaly119.26297°
Mean anomaly119.2013°
Eccentric anomaly119.23214°
Mean motion3.1604 °/min
BSTAR0.000068484
Orbital period113.91 mins
Loading maneuver chart data...
Loading historical data...
Loading historical data...
Loading historical data...
Loading historical data...
Loading historical data...
Loading historical data...
Loading historical data...

COSMOS 2271 Visibility forecast

Observer location: undefined°, undefined

Span
Click to sort rows by Start time (UTC) header in descending order
Start Az.
Max El. time (UTC)
Max El. Az.
Max El.
End time (UTC)
End Az.
15 mins2025-02-05 14:39:26.228Z165.212° S2025-02-05 14:47:26.228Z88.073° E39.631°2025-02-05 14:54:26.228Z17.874° NNE
12 mins2025-02-05 16:37:26.228Z240.666° WSW2025-02-05 16:42:26.228Z287.695° WNW26.702°2025-02-05 16:49:26.228Z347.605° N
11 mins2025-02-06 00:42:26.228Z24.354° NE2025-02-06 00:47:26.228Z65.921° ENE20.458°2025-02-06 00:53:26.228Z113.212° SE
15 mins2025-02-06 02:36:26.228Z348.073° N2025-02-06 02:43:26.228Z249.752° W44.053°2025-02-06 02:51:26.228Z182.356° SSW
4 mins2025-02-06 04:35:26.228Z293.354° NW2025-02-06 04:36:26.228Z285.823° WNW12.273°2025-02-06 04:39:26.228Z263.914° W
|